Skip Page Navigation
NASA JPL Caltech
NASA Logo - Jet Propulsion Laboratory + View the NASA Portal
+ Near-Earth Object (NEO) Program
Search JPL
JPL Home Earth Solar System Stars & Galaxies Technology
JPL Solar System Dynamics
BODIES ORBITS EPHEMERIDES TOOLS PHYSICAL DATA DISCOVERY FAQ SITE MAP
JPL Small-Body Database Browser
Search: [ help ]  
170906 Coluche (2004 XC41)
Classification: Main-belt Asteroid          SPK-ID: 2170906
Ephemeris | Orbit Diagram | Orbital Elements | Physical Parameters | Discovery Circumstances ]

[ show orbit diagram ]
Orbital Elements at Epoch 2456400.5 (2013-Apr-18.0) TDB
Reference: MPO229793 (heliocentric ecliptic J2000)
 Element Value Uncertainty (1-sigma)   Units 
e 0.1363244 n/a  
a 2.2118325 n/a AU
q 1.9103058 n/a AU
i 1.55429 n/a deg
node 274.74023 n/a deg
peri 147.91217 n/a deg
M 222.88181 n/a deg
tp 2456858.1351180
(2014-Jul-19.63511800)
n/a JED
period 1201.5082934
3.29
n/a
n/a
d
yr
n 0.29962340 n/a deg/d
Q 2.5133592 n/a AU
  Orbit Determination Parameters
   # obs. used (total)      225  
   first obs. used      2002-??-??  
   last obs. used      2012-04-18  
   # oppositions      7  
   planetary ephem.      DE403  
   condition code      1  
   fit RMS      0.53  
   data source      MPC:mpu  
   producer      MPCLINUX  

Additional Information
 T_jup = 3.644 

Ephemeris | Orbit Diagram | Orbital Elements | Physical Parameters | Discovery Circumstances ]

Physical Parameter Table
Parameter Symbol Value Units Sigma Reference Notes
absolute magnitude H 16.9 mag n/a MPO229793  

170906 Coluche           Discovered 2004 Dec. 9 by M. Ory at the Tenagra II Observatory.
Michel Colucci (1944-1986), better known as Coluche, was a French comedian and actor, famous for his irreverent sense of humour. He was one of the first major comedians to regularly use profanities as a source of humor on French television. He was the organiser of a charity called "Les Restos du Coeur".
NOTE: some special characters may not display properly (any characters within {} are an attempt to place the proper accent above a character)
Reference: 20110715/MPCPages.arcLast Updated: 2011-07-20

Alternate Designations
 2004 XC41 = 2002 ET123 
Ephemeris | Orbit Diagram | Orbital Elements | Physical Parameters | Discovery Circumstances ]
ABOUT SSD CREDITS/AWARDS PRIVACY/COPYRIGHT GLOSSARY LINKS
FirstGov 2013-May-24 19:31 UT
(server date/time)  
NASA Home Page
Site Manager:   Donald K. Yeomans
Webmaster  Alan B. Chamberlin